| time (UTC) | temp F | wind direction | speed knots | gust knots | rain 1hr in | rain 24hr in | rain mn in | humidity % | barometer mb |
| 20260503181339 | 58 | 266 | 5.2 | 8.7 | 0.00 | 0.00 | 0.00 | 67 | 1012.8 |
| 20260503180320 | 57 | 243 | 4.3 | 10.4 | 0.00 | 0.00 | 0.00 | 70 | 1013.0 |
| 20260503175349 | 58 | 260 | 4.3 | 9.6 | 0.00 | 0.00 | 0.00 | 70 | 1013.0 |
| 20260503174314 | 57 | 274 | 5.2 | 10.4 | 0.00 | 0.00 | 0.00 | 70 | 1013.0 |
| 20260503173336 | 57 | 280 | 4.3 | 8.7 | 0.00 | 0.00 | 0.00 | 70 | 1013.0 |
| 20260503172331 | 57 | 246 | 4.3 | 7.8 | 0.00 | 0.00 | 0.00 | 70 | 1013.1 |
| 20260503171329 | 56 | 287 | 1.7 | 5.2 | 0.00 | 0.00 | 0.00 | 71 | 1013.0 |
| 20260503170335 | 56 | 265 | 1.7 | 7.8 | 0.00 | 0.00 | 0.00 | 71 | 1013.0 |
| 20260503150315 | 53 | 256 | 1.7 | 4.3 | 0.00 | 0.00 | 0.00 | 73 | 1012.4 |
| 20260503131348 | 52 | 264 | 0.0 | 2.6 | 0.00 | 0.00 | 0.00 | 77 | 1011.0 |
| 20260503130325 | 52 | 345 | 0.0 | 4.3 | 0.00 | 0.00 | 0.00 | 77 | 1010.8 |
| 20260503110321 | 52 | 345 | 3.5 | 7.8 | 0.00 | 0.00 | 0.00 | 76 | 1010.9 |
| 20260503090320 | 52 | 248 | 0.9 | 7.0 | 0.00 | 0.00 | 0.00 | 76 | 1011.3 |
| 20260503081321 | 52 | 345 | 3.5 | 5.2 | 0.00 | 0.00 | 0.00 | 76 | 1011.9 |
| 20260503080345 | 52 | 345 | 2.6 | 6.1 | 0.00 | 0.00 | 0.00 | 76 | 1011.8 |
| 20260503072329 | 52 | 345 | 2.6 | 5.2 | 0.00 | 0.00 | 0.00 | 76 | 1011.9 |
| 20260503071334 | 52 | 263 | 2.6 | 7.0 | 0.00 | 0.00 | 0.00 | 76 | 1011.8 |
| 20260503070318 | 52 | 314 | 0.9 | 8.7 | 0.00 | 0.00 | 0.00 | 76 | 1011.8 |
| 20260503060312 | 52 | 271 | 1.7 | 7.0 | 0.00 | 0.00 | 0.00 | 76 | 1012.2 |
| 20260503054329 | 52 | 292 | 0.9 | 5.2 | 0.00 | 0.00 | 0.00 | 76 | 1012.5 |
| 20260503053330 | 52 | 290 | 3.5 | 8.7 | 0.00 | 0.00 | 0.00 | 76 | 1012.4 |
| 20260503052353 | 52 | 259 | 2.6 | 7.0 | 0.00 | 0.00 | 0.00 | 76 | 1012.3 |
| 20260503051318 | 52 | 277 | 2.6 | 9.6 | 0.00 | 0.00 | 0.00 | 76 | 1012.3 |
| 20260503050323 | 52 | 302 | 4.3 | 7.8 | 0.00 | 0.00 | 0.00 | 76 | 1012.3 |
| 20260503045340 | 52 | 263 | 0.9 | 4.3 | 0.00 | 0.00 | 0.00 | 76 | 1012.2 |
| 20260503044349 | 52 | 283 | 5.2 | 10.4 | 0.00 | 0.00 | 0.00 | 76 | 1012.3 |
| 20260503043336 | 52 | 345 | 1.7 | 8.7 | 0.00 | 0.00 | 0.00 | 76 | 1012.3 |
| 20260503042324 | 52 | 345 | 2.6 | 8.7 | 0.00 | 0.00 | 0.00 | 76 | 1012.2 |
| 20260503041344 | 52 | 270 | 2.6 | 7.8 | 0.00 | 0.00 | 0.00 | 77 | 1012.2 |
| 20260503040331 | 53 | 345 | 0.9 | 5.2 | 0.00 | 0.00 | 0.00 | 77 | 1012.1 |
| 20260503035317 | 52 | 345 | 4.3 | 9.6 | 0.00 | 0.00 | 0.00 | 78 | 1012.0 |
| 20260503034326 | 53 | 345 | 3.5 | 11.3 | 0.00 | 0.00 | 0.00 | 77 | 1011.9 |
| 20260503032326 | 53 | 345 | 3.5 | 11.3 | 0.00 | 0.00 | 0.00 | 77 | 1011.6 |
| 20260503031313 | 53 | 345 | 2.6 | 10.4 | 0.00 | 0.00 | 0.00 | 77 | 1011.4 |
| 20260503030323 | 53 | 345 | 3.5 | 9.6 | 0.00 | 0.00 | 0.00 | 77 | 1011.5 |
| 20260503025318 | 53 | 345 | 5.2 | 11.3 | 0.00 | 0.00 | 0.00 | 77 | 1011.4 |
| 20260503024321 | 53 | 345 | 5.2 | 11.3 | 0.00 | 0.00 | 0.00 | 77 | 1011.5 |
| 20260503023333 | 53 | 345 | 3.5 | 12.2 | 0.00 | 0.00 | 0.00 | 77 | 1011.5 |
| 20260503022318 | 53 | 345 | 7.8 | 13.9 | 0.00 | 0.00 | 0.00 | 77 | 1011.5 |
| 20260503021327 | 53 | 345 | 5.2 | 12.2 | 0.00 | 0.00 | 0.00 | 78 | 1011.5 |
| 20260503020335 | 53 | 345 | 6.1 | 10.4 | 0.00 | 0.00 | 0.00 | 78 | 1011.6 |
| 20260503015346 | 53 | 345 | 5.2 | 11.3 | 0.00 | 0.00 | 0.00 | 78 | 1011.7 |
| 20260503014327 | 53 | 345 | 4.3 | 12.2 | 0.00 | 0.00 | 0.00 | 77 | 1011.7 |
| 20260503013333 | 54 | 345 | 6.1 | 13.0 | 0.00 | 0.00 | 0.00 | 77 | 1011.7 |
| 20260503012321 | 54 | 345 | 2.6 | 10.4 | 0.00 | 0.00 | 0.00 | 77 | 1011.8 |
| 20260503011331 | 54 | 345 | 7.0 | 10.4 | 0.00 | 0.00 | 0.00 | 76 | 1011.8 |
| 20260503010316 | 54 | 345 | 4.3 | 15.6 | 0.00 | 0.00 | 0.00 | 76 | 1011.8 |
| 20260503005327 | 54 | 345 | 5.2 | 13.9 | 0.00 | 0.00 | 0.00 | 75 | 1011.9 |
| 20260503004343 | 55 | 246 | 7.0 | 13.9 | 0.00 | 0.00 | 0.00 | 75 | 1011.9 |
| 20260503003321 | 55 | 264 | 6.1 | 13.0 | 0.00 | 0.00 | 0.00 | 75 | 1011.9 |
| 20260503002313 | 55 | 305 | 7.8 | 13.0 | 0.00 | 0.00 | 0.00 | 74 | 1011.9 |
| 20260503001325 | 56 | 252 | 6.1 | 12.2 | 0.00 | 0.00 | 0.00 | 74 | 1011.9 |
| 20260503000330 | 56 | 283 | 7.0 | 11.3 | 0.00 | 0.00 | 0.00 | 73 | 1011.9 |
| 20260502235321 | 56 | 258 | 7.0 | 13.9 | 0.00 | 0.00 | 0.00 | 72 | 1012.0 |
| 20260502234400 | 57 | 283 | 6.1 | 12.2 | 0.00 | 0.00 | 0.00 | 72 | 1011.9 |
| 20260502233318 | 58 | 261 | 6.1 | 13.9 | 0.00 | 0.00 | 0.00 | 71 | 1012.0 |
| 20260502232330 | 57 | 264 | 7.0 | 12.2 | 0.00 | 0.00 | 0.00 | 70 | 1012.1 |
| 20260502231318 | 58 | 283 | 7.0 | 12.2 | 0.00 | 0.00 | 0.00 | 70 | 1012.1 |
| 20260502230322 | 58 | 242 | 6.1 | 10.4 | 0.00 | 0.00 | 0.00 | 69 | 1012.3 |
| 20260502225327 | 58 | 254 | 8.7 | 12.2 | 0.00 | 0.00 | 0.00 | 69 | 1012.5 |
| 20260502224331 | 58 | 275 | 5.2 | 12.2 | 0.00 | 0.00 | 0.00 | 69 | 1012.6 |
| 20260502223330 | 58 | 241 | 7.0 | 14.8 | 0.00 | 0.00 | 0.00 | 70 | 1012.7 |
| 20260502222321 | 58 | 263 | 7.8 | 13.9 | 0.00 | 0.00 | 0.00 | 70 | 1012.8 |
| 20260502221337 | 58 | 263 | 7.8 | 11.3 | 0.00 | 0.00 | 0.00 | 69 | 1012.9 |
| 20260502220317 | 57 | 237 | 5.2 | 12.2 | 0.00 | 0.00 | 0.00 | 70 | 1013.0 |
| 20260502215314 | 57 | 244 | 8.7 | 14.8 | 0.00 | 0.00 | 0.00 | 71 | 1013.1 |
| 20260502214334 | 58 | 260 | 7.8 | 13.0 | 0.00 | 0.00 | 0.00 | 71 | 1013.1 |
| 20260502213315 | 58 | 271 | 9.6 | 15.6 | 0.00 | 0.00 | 0.00 | 71 | 1013.0 |
| 20260502212320 | 57 | 256 | 10.4 | 15.6 | 0.00 | 0.00 | 0.00 | 71 | 1013.1 |
| 20260502211323 | 58 | 254 | 10.4 | 14.8 | 0.00 | 0.00 | 0.00 | 71 | 1013.2 |
| 20260502210316 | 58 | 279 | 6.1 | 13.0 | 0.00 | 0.00 | 0.00 | 71 | 1013.2 |
| 20260502205329 | 57 | 256 | 7.0 | 13.0 | 0.00 | 0.00 | 0.00 | 72 | 1013.3 |
| 20260502204315 | 56 | 250 | 9.6 | 14.8 | 0.00 | 0.00 | 0.00 | 73 | 1013.3 |
| 20260502203346 | 56 | 275 | 7.8 | 13.0 | 0.00 | 0.00 | 0.00 | 74 | 1013.5 |
| 20260502202316 | 56 | 264 | 8.7 | 14.8 | 0.00 | 0.00 | 0.00 | 74 | 1013.5 |
| 20260502201322 | 57 | 264 | 5.2 | 11.3 | 0.00 | 0.00 | 0.00 | 74 | 1013.7 |
| 20260502200334 | 57 | 290 | 8.7 | 13.9 | 0.00 | 0.00 | 0.00 | 74 | 1013.7 |
| 20260502195325 | 57 | 260 | 9.6 | 13.9 | 0.00 | 0.00 | 0.00 | 73 | 1013.5 |
| 20260502194328 | 57 | 241 | 7.8 | 13.0 | 0.00 | 0.00 | 0.00 | 74 | 1013.6 |
| 20260502193326 | 57 | 246 | 7.8 | 13.9 | 0.00 | 0.00 | 0.00 | 74 | 1013.6 |
| 20260502192315 | 57 | 260 | 8.7 | 12.2 | 0.00 | 0.00 | 0.00 | 73 | 1013.6 |
| 20260502191320 | 57 | 265 | 6.1 | 10.4 | 0.00 | 0.00 | 0.00 | 73 | 1013.7 |
| 20260502190354 | 57 | 265 | 7.0 | 11.3 | 0.00 | 0.00 | 0.00 | 72 | 1013.7 |
| 20260502185339 | 57 | 252 | 7.0 | 11.3 | 0.00 | 0.00 | 0.00 | 73 | 1013.7 |
| 20260502184349 | 57 | 298 | 6.1 | 12.2 | 0.00 | 0.00 | 0.00 | 72 | 1013.6 |
| 20260502183333 | 58 | 279 | 6.1 | 10.4 | 0.00 | 0.00 | 0.00 | 71 | 1013.5 |
| 20260502182324 | 58 | 275 | 5.2 | 10.4 | 0.00 | 0.00 | 0.00 | 71 | 1013.6 |